Location: Roc des P�zouls
(43.9667°N, 3.5500°E)
Time: 21:40:42
(UTC+00:00)

In-Cosmos 22 Rocket - Pass Details

Date: 14 November 2019
Orbit: 791 x 887 km, 81.2° (Epoch: 12 December)

Event Time Altitude Azimuth Distance (km) Brightness Sun altitude
Rises 05:00:48 0° 188° (S) 3,280 7.3 -17.7°
Reaches altitude 10° 05:03:09 10° 189° (S) 2,361 6.5 -17.3°
Maximum altitude 05:08:29 90° 286° (WNW) 813 4.1 -16.3°
Drops below altitude 10° 05:13:58 10° 10° (N) 2,426 6.6 -15.3°
Sets 05:16:24 0° 11° (N) 3,377 7.3 -14.9°
